VIZARD-METEO (RS38S)

Last updated on Mon Sep 07 2026 00:03:13 GMT+0000 (Coordinated Universal Time)

1 57189U 23091Z 26249.58091866 .00011106 00000+0 29542-3 0 9994 2 57189 97.5022 320.8064 0007956 132.8924 227.2990 15.38370439177195
UTC large
Height (km)
Speed (km/s)
/
Latitude / Longitude
Inclination (degrees)
Orbital Period (minutes)
Azimuth
Elevation
Range (km)
Doppler Factor

Next 0 passes for location: London (51.5072 / 0.1276)

No passes found over London.
VIZARD-METEO (RS38S)